Probability
0 0 0 0 0 0 0 0 0 0 0 1 2 2 4 9 16 23 25 25 24 25 31 36 36 34 31 31 30 28 26 24 23 18 13 9 8 6 4 3 2 2 4 5
0 0 0 0 0 0 0 0 0 0 0 0 1 1 2 6 12 17 21 24 27 29 34 38 38 35 32 32 31 29 27 26 25 20 14 10 9 8 6 4 3 4 6 8
0 0 0 0 0 0 0 0 0 0 0 0 0 0 2 4 8 14 18 23 29 34 37 38 37 34 32 31 31 29 29 29 27 21 14 10 9 10 9 6 3 5 7 7
0 0 0 0 0 0 0 0 0 0 0 0 0 1 2 5 8 13 18 22 27 33 35 35 35 34 32 31 31 30 30 30 26 20 13 9 8 9 8 6 4 4 5 5
0 0 0 0 0 0 0 0 0 0 0 0 0 1 3 5 7 11 17 20 24 29 32 33 34 35 33 32 31 31 30 28 23 17 12 10 8 7 7 5 3 4 5 6
0 0 0 0 0 0 0 0 0 0 0 0 0 1 2 4 5 8 15 20 22 26 29 31 34 36 36 34 32 32 31 27 21 15 13 11 10 9 7 5 3 3 6 10
0 0 0 0 0 0 0 0 0 0 0 0 0 0 2 4 5 9 14 18 20 23 27 31 35 37 37 36 34 33 31 27 21 15 13 12 11 10 9 6 4 4 7 10
0 0 0 0 0 0 0 0 0 0 0 0 0 1 3 5 9 13 15 15 16 18 24 31 35 37 37 35 33 32 30 27 21 16 13 11 10 10 9 7 5 6 8 9
0 0 0 0 0 0 0 0 0 0 0 0 0 1 4 8 15 18 16 12 12 15 21 27 31 32 32 29 28 28 27 25 20 17 14 10 9 10 9 7 7 7 8 9
0 0 0 0 0 0 0 0 0 0 0 0 0 1 4 10 17 20 16 10 9 13 17 21 23 24 24 22 22 23 25 23 19 17 15 10 8 8 8 7 7 7 7 7
0 0 0 0 0 0 0 0 0 0 0 0 0 0 3 10 15 17 14 9 8 10 13 15 16 17 17 16 16 19 22 21 18 16 14 11 8 8 8 8 7 6 6 6
0 0 0 0 0 0 0 0 0 0 0 0 0 1 4 8 12 13 11 10 9 9 10 11 11 13 13 13 13 15 18 19 17 14 13 12 11 10 11 9 8 7 6 6
0 0 0 0 0 0 0 1 0 0 0 0 0 1 4 8 10 10 11 12 13 13 13 11 10 10 11 12 12 13 15 15 13 12 13 14 14 14 14 13 10 8 7 6
0 0 0 0 0 0 0 0 0 0 0 0 0 1 4 7 8 9 11 14 20 23 21 16 12 11 11 12 13 13 12 10 8 10 12 14 15 15 16 15 13 9 7 6
0 0 0 0 0 0 0 0 0 0 0 0 1 2 4 6 8 11 12 17 24 28 26 19 14 14 14 14 13 12 9 7 7 9 11 12 13 14 15 15 14 11 8 6
0 0 0 0 0 0 0 0 0 0 0 1 1 3 5 8 12 14 17 21 26 27 24 19 16 17 18 16 12 9 8 7 7 7 8 9 10 11 12 13 14 12 9 7
0 0 0 0 0 0 0 0 0 0 0 1 2 4 7 11 15 17 19 23 25 23 20 18 17 18 18 15 10 7 6 5 6 6 6 6 7 8 9 10 12 13 11 10
0 0 0 0 0 0 0 0 0 0 0 1 3 7 10 13 17 18 19 21 20 16 15 15 16 16 15 12 8 5 4 4 4 4 4 4 4 5 7 8 9 11 12 11
0 0 0 0 0 0 0 0 0 0 0 1 4 9 13 17 19 18 16 16 15 13 12 13 13 12 10 7 4 3 3 3 3 3 3 3 3 4 6 6 7 9 11 12
0 0 0 0 0 0 0 0 0 1 1 3 6 10 13 16 16 13 11 11 12 11 10 10 9 8 6 4 3 2 2 2 3 3 3 3 4 5 6 6 7 8 10 11
0 0 0 0 0 0 0 0 1 1 3 5 8 10 11 10 8 7 8 8 7 7 7 7 7 6 4 3 2 2 1 1 1 2 2 3 4 5 6 6 7 8 8 9
0 0 0 0 0 0 0 1 2 3 4 6 8 9 8 6 6 7 8 7 6 5 5 6 6 6 4 2 2 1 0 0 0 1 1 1 2 3 4 4 5 5 6 6
0 0 0 0 0 0 1 1 3 3 3 4 5 5 6 6 6 8 9 8 6 6 6 6 6 6 4 2 1 1 0 0 0 0 0 0 1 1 1 1 2 2 3 3
0 0 0 0 0 0 1 2 2 3 2 2 2 3 4 5 6 7 8 9 8 7 6 6 6 6 5 2 0 0 0 0 0 0 0 0 0 0 0 0 0 0 1 1
0 1 1 0 0 0 1 1 1 2 2 1 0 1 3 5 6 7 9 10 10 8 7 6 6 6 4 1 0 0 0 0 0 0 0 0 0 0 0 0 0 0 0 0
1 2 2 1 0 0 0 0 1 2 3 2 1 0 2 5 7 8 9 12 12 10 6 6 6 5 3 1 0 0 0 0 0 0 0 0 0 0 0 1 1 1 0 0
Wind_Speed
1 2 4 7 7 7 4 3 5 6 3 3 3 4 5 4 7 8 8 8 8 7 6 6 6 6 7 6 7 6 6 4 4 3 2 2 1 1 1 1 1 1 1 2
3 5 10 7 6 5 4 4 5 6 3 2 3 4 3 3 6 8 10 9 9 7 6 6 6 6 7 7 7 6 6 4 4 3 2 2 2 1 1 1 1 1 2 2
7 9 6 5 6 6 5 5 5 4 3 3 2 2 3 1 3 4 5 6 8 11 11 9 9 8 8 8 8 7 6 5 4 4 3 3 2 2 2 1 1 1 2 2
6 8 5 4 6 4 5 6 4 2 1 2 1 1 4 1 2 2 3 4 6 9 11 11 10 10 9 8 7 6 5 5 4 5 4 5 3 2 1 1 0 1 1 2
6 4 3 5 8 5 6 5 2 2 2 1 2 3 5 1 0 2 3 5 5 7 10 11 11 10 8 7 7 6 5 4 4 4 5 4 3 2 1 1 1 1 1 1
7 6 4 5 5 4 3 3 5 5 5 2 3 3 4 4 6 5 4 5 5 5 6 8 8 7 7 7 6 6 5 3 3 4 4 4 4 3 3 2 1 0 0 1
7 7 5 3 3 5 2 5 4 5 4 4 3 2 5 5 5 6 7 7 6 6 7 7 7 7 7 7 7 6 7 5 4 4 3 4 4 4 4 2 2 1 0 0
2 7 5 2 4 4 2 8 7 4 4 4 3 1 4 2 2 3 4 5 5 6 7 8 8 8 8 7 7 6 6 5 4 4 3 3 4 3 2 2 2 2 1 1
3 6 6 5 3 4 2 2 7 7 1 0 2 2 3 2 3 3 4 5 5 5 6 7 7 7 7 6 6 6 6 5 5 4 4 3 3 3 3 2 2 1 1 1
5 3 6 5 3 2 4 5 6 5 3 1 2 3 4 4 3 3 4 5 6 5 6 6 6 6 6 5 5 5 5 5 5 5 4 3 3 3 3 2 2 1 1 1
3 2 5 4 1 1 2 2 5 4 5 5 3 6 6 8 7 7 6 6 7 7 7 6 5 5 5 4 5 5 4 4 4 4 3 3 2 2 2 2 2 2 1 1
2 5 2 5 4 2 4 3 5 4 3 4 4 7 4 6 5 7 6 5 6 6 6 6 6 5 4 4 4 4 4 4 3 3 3 3 3 2 2 2 1 1 1 1
3 5 3 7 8 6 3 1 2 5 4 3 4 6 2 2 3 5 7 6 5 6 6 5 5 4 4 4 3 3 3 3 3 3 3 3 2 2 3 2 2 2 1 1
5 4 5 5 5 2 3 4 2 3 3 3 5 5 3 2 4 5 6 6 5 6 7 6 5 3 3 3 4 3 3 3 3 3 3 3 3 3 3 2 2 2 2 1
6 2 1 3 4 2 2 3 2 1 4 6 6 6 6 7 7 7 7 7 6 5 5 6 6 4 3 3 3 3 2 2 3 3 3 3 3 2 2 2 2 2 2 2
4 2 1 3 2 3 3 4 3 2 2 2 2 2 3 3 5 5 6 8 7 6 5 5 5 4 4 4 3 3 3 2 3 3 3 3 3 2 2 2 2 2 1 2
2 3 2 2 4 4 4 3 1 1 1 4 4 4 2 4 6 7 7 7 7 6 5 5 5 4 3 3 3 3 2 2 2 2 2 2 2 2 2 2 2 2 3 2
5 4 3 0 3 3 6 2 2 2 0 2 3 4 6 6 5 4 5 7 6 5 5 4 3 3 2 2 2 2 2 2 2 2 2 2 3 2 2 1 2 3 3 2
6 7 3 2 1 4 5 3 1 0 1 0 3 4 4 6 5 3 1 5 6 5 4 4 4 4 3 2 2 2 1 1 1 2 2 2 3 3 3 3 3 3 2 2
4 5 5 3 2 4 6 5 3 2 1 2 3 5 5 5 4 3 3 3 4 4 4 4 4 3 3 2 3 3 2 2 1 2 2 2 2 3 3 3 3 2 2 2
3 2 2 3 3 4 5 5 3 2 5 3 3 4 5 4 5 5 5 4 4 4 5 5 5 3 2 2 4 4 2 1 1 0 0 1 1 2 3 3 2 2 1 1
3 2 2 2 2 6 5 1 2 5 3 1 2 3 3 4 4 5 6 6 5 4 4 4 4 3 2 2 4 3 1 1 0 1 1 0 1 1 1 2 1 1 1 1
2 5 4 5 6 5 2 3 4 4 3 2 2 2 4 5 5 5 5 6 5 5 4 3 4 2 1 1 3 3 2 1 1 1 1 1 0 0 1 1 2 1 1 1
3 1 2 1 3 3 2 1 1 1 3 3 3 4 5 5 6 6 6 5 5 4 3 3 4 3 1 1 1 2 2 2 2 1 0 0 0 1 1 1 1 1 2 1
3 1 0 1 2 2 3 1 1 0 1 1 2 3 5 7 6 6 5 5 5 4 3 3 4 3 3 2 1 1 1 2 1 1 1 1 0 1 1 1 1 2 2 4
2 3 3 5 5 3 5 4 2 2 1 2 2 2 3 5 6 5 5 5 5 5 4 3 3 3 3 2 1 1 1 2 2 1 1 1 1 1 1 1 1 2 2 3
Wind_Direction
286 80 235 235 214 212 239 270 279 270 251 122 178 212 221 178 144 150 149 150 165 173 155 133 130 138 140 135 131 130 129 133 127 119 118 117 117 120 95 95 91 89 106 118
4 264 239 235 245 246 244 268 284 295 298 161 187 240 244 164 157 159 158 165 165 148 132 137 135 144 146 141 138 135 136 136 134 131 136 140 135 122 118 60 56 67 100 127
213 247 245 234 256 255 255 230 240 247 316 19 101 342 346 51 95 113 135 152 156 158 158 163 161 163 153 149 152 151 150 145 140 131 113 100 76 58 48 37 33 7 82 114
241 253 253 255 259 232 260 252 228 237 105 285 135 212 302 274 62 92 131 142 159 169 165 169 169 168 163 159 152 147 145 138 139 134 130 130 131 141 184 180 155 34 58 84
257 251 238 249 249 224 234 246 224 203 146 27 13 118 278 306 302 239 190 170 163 165 169 172 173 168 156 147 143 141 135 133 138 136 142 139 136 148 145 116 94 66 32 52
255 260 226 234 265 237 230 17 19 46 68 16 263 155 259 235 213 206 185 166 157 149 152 160 160 147 144 145 140 136 129 134 139 143 148 145 145 142 130 121 111 87 26 18
304 298 282 261 302 319 62 79 31 2 13 258 260 136 242 239 206 187 173 168 159 151 139 136 139 143 150 152 149 148 149 156 156 146 151 150 149 148 154 162 161 145 127 22
285 295 286 269 202 211 203 137 153 190 224 273 334 212 263 260 138 120 135 149 145 146 144 145 151 149 149 154 154 156 158 158 157 154 158 144 142 149 160 159 153 165 187 199
203 266 288 287 243 164 167 172 165 142 172 44 293 289 321 15 77 96 114 128 141 143 142 143 147 146 146 149 158 167 165 161 162 162 155 146 149 152 160 164 155 162 181 183
168 259 293 306 13 358 155 150 92 105 134 243 272 232 218 210 190 156 149 151 147 145 137 138 145 150 157 160 157 157 159 166 165 160 159 158 160 160 161 159 161 163 184 175
146 164 307 352 80 248 40 77 109 122 151 158 228 261 219 194 186 171 174 168 155 154 152 147 145 145 144 143 154 158 154 151 158 159 156 155 162 164 161 166 175 170 164 163
122 123 269 280 280 205 137 148 135 147 219 166 175 258 244 189 179 160 157 149 145 152 151 145 142 137 135 140 149 154 153 150 160 159 156 166 170 164 169 184 189 166 166 181
85 95 43 346 345 4 34 34 136 143 131 158 177 255 275 144 136 150 149 145 141 143 137 131 133 142 148 153 153 150 146 148 154 154 158 162 167 176 187 192 184 175 177 191
95 98 151 194 227 275 318 322 334 116 146 201 213 222 239 194 169 162 155 153 153 151 144 138 139 159 155 156 160 153 150 152 156 162 171 175 187 193 198 191 180 188 195 206
85 104 231 240 245 268 294 308 325 218 200 190 218 208 217 198 184 175 162 155 153 150 148 149 150 155 151 157 163 159 157 163 163 166 182 198 201 192 189 188 189 197 206 215
72 112 7 318 320 341 325 318 303 288 256 186 171 247 246 172 141 148 153 150 153 155 159 151 146 146 158 163 167 164 170 178 167 175 196 201 188 186 194 204 202 195 212 226
97 114 80 289 313 15 313 292 308 277 275 153 185 231 175 136 147 159 160 154 153 159 163 155 157 158 166 175 168 174 182 166 160 173 186 187 185 200 221 216 201 204 209 210
145 120 127 202 23 241 246 281 83 99 265 157 162 168 152 153 156 144 144 146 151 162 163 151 149 147 159 156 148 154 147 148 160 183 199 187 183 200 218 217 238 231 212 206
151 140 130 121 185 273 295 311 354 105 308 311 141 135 125 117 87 51 119 146 159 164 156 153 154 148 141 140 142 126 108 125 159 194 214 209 192 191 204 222 242 236 209 218
77 107 123 135 166 233 258 290 307 88 288 308 126 136 145 115 122 222 198 155 143 137 139 141 133 118 122 126 115 106 98 91 179 228 228 217 185 185 203 219 232 243 214 221
31 46 130 159 195 253 270 300 11 137 239 268 149 150 155 162 184 187 162 147 147 140 142 138 128 130 151 139 112 108 109 138 240 203 170 207 202 198 206 212 225 226 214 218
164 153 189 152 187 252 277 359 156 214 223 169 139 146 143 148 144 147 149 147 143 136 138 140 135 139 153 140 123 120 145 225 83 78 69 353 271 232 190 192 212 191 168 188
181 186 182 183 213 240 244 209 214 171 156 165 165 164 146 142 146 151 152 150 150 151 150 144 136 138 165 169 146 149 191 175 101 79 55 342 322 304 216 191 190 178 173 186
314 29 124 214 263 272 298 351 343 140 164 181 170 151 140 146 154 154 153 151 150 152 158 147 139 149 189 210 172 174 179 156 119 119 199 318 41 340 305 226 194 178 188 196
252 309 19 261 288 335 318 297 248 185 111 131 153 152 156 150 157 158 156 157 159 156 161 153 156 168 179 176 193 218 173 155 153 172 199 232 224 230 278 268 227 203 214 202
231 184 185 235 233 212 255 262 220 156 154 154 141 152 165 158 164 160 157 159 157 157 161 158 164 173 181 173 196 223 185 162 160 175 214 218 221 241 245 219 320 328 277 256